Find Starlink 4135

NORAD ID: 53248 Int'l Des: 2022-086 Owner: SPXS Country: US Constellation: starlink operational
LEOCIRCULAR

Live Position

Loading 3D Globe...

About Starlink 4135

Description loading...

Upcoming Passes

Passes for default location (London). Set your location on the main map for personalized predictions.

Altitude History

Loading altitude history...

Two-Line Element Set

1 53248U 22086G 26121.56691884 -.00002688 00000-0 -15075-3 0 9996
2 53248 53.2185 321.8509 0001242 83.7721 276.3413 15.08861179209297
Epoch: May 1, 2026 • Age: 9 hours

Current Status

Altitude 558.9 km
Velocity 7.58 km/s
Sub-Earth Point -52.83°S, 39.89°E
Launch Date Jul 24, 2022
Age 3.7 years
Type internet

Technical Details

Classification Payload
Mass 297.00 kg
Dry Mass 275.00 kg
Total Mass 297.00 kg
Length 0.20 m
Diameter 2.80 m
Span 9.00 m
Shape Box + pan
Manufacturer SPXS
Bus Type Starlink
Phase Status In Orbit
Owner/State SPXS/US

Most Searched